Location: ??????
(36.0418°N, 43.6351°E)
Time: 03:17:42
(UTC+00:00)

Cosmos 883 Rocket - Pass Details

Date: 22 June 2021
Orbit: 950 x 996 km, 83.0° (Epoch: 27 July)

Event Time Altitude Azimuth Distance (km) Brightness Sun altitude
Rises 22:48:52 0° 9° (N) 3,633 8.7 -25.9°
Reaches altitude 10° 22:52:02 10° 25° (NNE) 2,680 7.8 -25.6°
Maximum altitude 22:56:34 21° 73° (ENE) 1,979 6.6 -25.2°
Drops below altitude 10° 23:01:05 10° 121° (ESE) 2,670 6.8 -24.8°
Enters shadow 23:04:04 - 136° (SE) 3,569 7.3 -24.5°
